• In Uzbekistan
  • List of Countries
  • For 7 days
  • Water Temperature
  • Satellite Maps
  • Weather Map
  • Weather Widgets
  • user-avatar
    Login

    Hourly Weather Yeghegnadzor

    Today, 22 June, Thursday

    Time Temperature Precipitation Wind Pressure Humidity
    00:00 +17°C° 0.4 mm 2 mps 649 mmHg 75%
    01:00 +17°C° 0.4 mm 2 mps 649 mmHg 77%
    02:00 +16°C° 0.4 mm 2 mps 649 mmHg 79%
    03:00 +16°C° 0 mm 2 mps 648 mmHg 83%
    04:00 +16°C° 0.7 mm 2 mps 649 mmHg 82%
    05:00 +18°C° 0.7 mm 1 mps 649 mmHg 81%
    06:00 +18°C° 0.7 mm 1 mps 649 mmHg 79%
    07:00 +20°C° 0.5 mm 1 mps 650 mmHg 71%
    08:00 +21°C° 0.5 mm 1 mps 650 mmHg 62%
    09:00 +23°C° 0 mm 2 mps 650 mmHg 53%
    10:00 +24°C° 0.6 mm 2 mps 651 mmHg 51%
    11:00 +24°C° 0.6 mm 2 mps 651 mmHg 49%
    12:00 +25°C° 0.6 mm 2 mps 651 mmHg 47%
    13:00 +25°C° 0.6 mm 2 mps 651 mmHg 47%
    14:00 +25°C° 0.6 mm 3 mps 651 mmHg 47%
    15:00 +24°C° 0 mm 3 mps 651 mmHg 49%
    16:00 +22°C° 0.5 mm 3 mps 651 mmHg 53%
    17:00 +23°C° 0.5 mm 2 mps 651 mmHg 56%
    18:00 +21°C° 0.5 mm 2 mps 651 mmHg 59%
    19:00 +19°C° 0.2 mm 2 mps 651 mmHg 65%
    20:00 +17°C° 0.2 mm 2 mps 651 mmHg 71%
    21:00 +16°C° 0.2 mm 1 mps 651 mmHg 77%
    22:00 +15°C° 0 mm 1 mps 651 mmHg 78%
    23:00 +15°C° 0 mm 1 mps 651 mmHg 79%

    Tomorrow, 23 June, Friday

    Time Temperature Precipitation Wind Pressure Humidity
    00:00 +14°C° 0 mm 1 mps 652 mmHg 80%
    01:00 +14°C° 0 mm 1 mps 652 mmHg 81%
    02:00 +13°C° 0 mm 1 mps 652 mmHg 82%
    03:00 +13°C° 0 mm 1 mps 652 mmHg 83%
    04:00 +14°C° 0 mm 1 mps 652 mmHg 80%
    05:00 +14°C° 0 mm 1 mps 652 mmHg 78%
    06:00 +15°C° 0 mm 1 mps 653 mmHg 75%
    07:00 +18°C° 0 mm 1 mps 653 mmHg 65%
    08:00 +20°C° 0 mm 1 mps 654 mmHg 56%
    09:00 +23°C° 0 mm 1 mps 655 mmHg 46%
    10:00 +24°C° 0 mm 1 mps 655 mmHg 42%
    11:00 +25°C° 0 mm 1 mps 655 mmHg 38%
    12:00 +26°C° 0 mm 2 mps 655 mmHg 34%
    13:00 +26°C° 0.1 mm 2 mps 654 mmHg 33%
    14:00 +27°C° 0.1 mm 2 mps 654 mmHg 33%
    15:00 +27°C° 0.1 mm 2 mps 654 mmHg 32%
    16:00 +26°C° 0.2 mm 2 mps 654 mmHg 36%
    17:00 +25°C° 0.2 mm 2 mps 654 mmHg 40%
    18:00 +24°C° 0.2 mm 2 mps 653 mmHg 44%
    19:00 +21°C° 0.1 mm 2 mps 653 mmHg 52%
    20:00 +19°C° 0.1 mm 2 mps 653 mmHg 61%
    21:00 +16°C° 0.1 mm 2 mps 653 mmHg 70%
    22:00 +16°C° 0 mm 2 mps 653 mmHg 73%
    23:00 +15°C° 0 mm 2 mps 653 mmHg 76%

    Day after tomorrow, 24 June, Saturday

    Time Temperature Precipitation Wind Pressure Humidity
    00:00 +15°C° 0 mm 2 mps 653 mmHg 78%
    01:00 +15°C° 0 mm 2 mps 653 mmHg 80%
    02:00 +14°C° 0 mm 2 mps 653 mmHg 81%
    03:00 +14°C° 0 mm 2 mps 653 mmHg 82%
    04:00 +15°C° 0 mm 1 mps 653 mmHg 79%
    05:00 +15°C° 0 mm 1 mps 654 mmHg 77%
    06:00 +16°C° 0 mm 1 mps 654 mmHg 74%
    07:00 +19°C° 0 mm 1 mps 654 mmHg 63%
    08:00 +22°C° 0 mm 1 mps 655 mmHg 51%
    09:00 +24°C° 0 mm 1 mps 655 mmHg 39%
    10:00 +26°C° 0 mm 1 mps 655 mmHg 36%
    11:00 +27°C° 0 mm 2 mps 655 mmHg 32%
    12:00 +29°C° 0 mm 2 mps 655 mmHg 28%
    13:00 +29°C° 0 mm 2 mps 655 mmHg 27%
    14:00 +29°C° 0 mm 2 mps 654 mmHg 26%
    15:00 +30°C° 0 mm 2 mps 654 mmHg 26%
    16:00 +29°C° 0 mm 2 mps 654 mmHg 29%
    17:00 +28°C° 0 mm 1 mps 653 mmHg 32%
    18:00 +27°C° 0 mm 1 mps 653 mmHg 36%
    19:00 +24°C° 0 mm 1 mps 652 mmHg 44%
    20:00 +21°C° 0 mm 1 mps 652 mmHg 53%
    21:00 +19°C° 0 mm 1 mps 652 mmHg 62%
    22:00 +18°C° 0 mm 1 mps 652 mmHg 65%
    23:00 +17°C° 0 mm 2 mps 652 mmHg 68%

    25 June, Sunday

    Time Temperature Precipitation Wind Pressure Humidity
    00:00 +16°C° 0 mm 2 mps 652 mmHg 71%
    01:00 +16°C° 0 mm 2 mps 651 mmHg 72%
    02:00 +15°C° 0 mm 2 mps 651 mmHg 74%
    03:00 +15°C° 0 mm 1 mps 651 mmHg 75%
    04:00 +16°C° 0 mm 1 mps 652 mmHg 72%
    05:00 +18°C° 0 mm 1 mps 652 mmHg 69%
    06:00 +19°C° 0 mm 1 mps 653 mmHg 66%
    07:00 +22°C° 0 mm 1 mps 653 mmHg 56%
    08:00 +24°C° 0 mm 1 mps 654 mmHg 46%
    09:00 +27°C° 0 mm 1 mps 654 mmHg 36%
    10:00 +28°C° 0.1 mm 1 mps 654 mmHg 34%
    11:00 +29°C° 0.1 mm 2 mps 654 mmHg 32%
    12:00 +30°C° 0.1 mm 2 mps 654 mmHg 31%
    13:00 +30°C° 0.3 mm 2 mps 654 mmHg 32%
    14:00 +30°C° 0.3 mm 2 mps 654 mmHg 33%
    15:00 +30°C° 0.3 mm 2 mps 653 mmHg 34%
    16:00 +29°C° 0.2 mm 2 mps 653 mmHg 37%
    17:00 +28°C° 0.2 mm 2 mps 653 mmHg 40%
    18:00 +27°C° 0.2 mm 2 mps 653 mmHg 42%
    19:00 +25°C° 0.1 mm 2 mps 653 mmHg 51%
    20:00 +21°C° 0.1 mm 2 mps 653 mmHg 60%
    21:00 +19°C° 0.1 mm 2 mps 653 mmHg 70%
    22:00 +19°C° 0 mm 2 mps 653 mmHg 72%
    23:00 +18°C° 0 mm 2 mps 654 mmHg 75%

    26 June, Monday

    Time Temperature Precipitation Wind Pressure Humidity
    00:00 +18°C° 0 mm 2 mps 654 mmHg 78%
    01:00 +17°C° 0 mm 2 mps 654 mmHg 79%
    02:00 +17°C° 0 mm 2 mps 654 mmHg 80%
    03:00 +16°C° 0 mm 2 mps 654 mmHg 80%
    04:00 +18°C° 0 mm 1 mps 654 mmHg 78%
    05:00 +19°C° 0 mm 1 mps 654 mmHg 75%
    06:00 +19°C° 0 mm 1 mps 655 mmHg 72%
    07:00 +22°C° 0 mm 1 mps 656 mmHg 61%
    08:00 +25°C° 0 mm 1 mps 656 mmHg 50%
    09:00 +27°C° 0 mm 1 mps 657 mmHg 39%
    10:00 +29°C° 0 mm 1 mps 657 mmHg 36%
    11:00 +30°C° 0 mm 1 mps 657 mmHg 34%
    12:00 +31°C° 0 mm 2 mps 657 mmHg 31%
    13:00 +31°C° 0.3 mm 2 mps 656 mmHg 33%
    14:00 +31°C° 0.3 mm 2 mps 656 mmHg 34%
    15:00 +31°C° 0.3 mm 2 mps 656 mmHg 35%
    16:00 +30°C° 0.1 mm 2 mps 656 mmHg 38%
    17:00 +29°C° 0.1 mm 1 mps 655 mmHg 40%
    18:00 +28°C° 0.1 mm 1 mps 655 mmHg 43%
    19:00 +26°C° 0 mm 1 mps 655 mmHg 52%
    20:00 +23°C° 0 mm 2 mps 655 mmHg 61%
    21:00 +20°C° 0 mm 2 mps 655 mmHg 70%
    22:00 +19°C° 0.1 mm 2 mps 655 mmHg 72%
    23:00 +19°C° 0.1 mm 2 mps 655 mmHg 74%

    27 June, Tuesday

    Time Temperature Precipitation Wind Pressure Humidity
    00:00 +19°C° 0.1 mm 2 mps 655 mmHg 76%
    01:00 +18°C° 0 mm 2 mps 655 mmHg 76%
    02:00 +18°C° 0 mm 2 mps 654 mmHg 77%
    03:00 +18°C° 0 mm 1 mps 654 mmHg 77%
    04:00 +19°C° 0 mm 1 mps 655 mmHg 74%
    05:00 +20°C° 0 mm 1 mps 655 mmHg 70%
    06:00 +21°C° 0 mm 1 mps 656 mmHg 67%
    07:00 +24°C° 0 mm 1 mps 656 mmHg 56%
    08:00 +27°C° 0 mm 1 mps 657 mmHg 46%
    09:00 +29°C° 0 mm 1 mps 657 mmHg 36%
    10:00 +31°C° 0 mm 1 mps 657 mmHg 33%
    11:00 +32°C° 0 mm 1 mps 657 mmHg 30%
    12:00 +34°C° 0 mm 2 mps 657 mmHg 27%
    13:00 +34°C° 0.1 mm 2 mps 656 mmHg 28%
    14:00 +34°C° 0.1 mm 2 mps 656 mmHg 29%
    15:00 +34°C° 0.1 mm 2 mps 655 mmHg 29%
    16:00 +32°C° 0.1 mm 2 mps 655 mmHg 33%
    17:00 +31°C° 0.1 mm 2 mps 655 mmHg 36%
    18:00 +30°C° 0.1 mm 1 mps 655 mmHg 40%
    19:00 +28°C° 0 mm 1 mps 654 mmHg 49%
    20:00 +25°C° 0 mm 2 mps 654 mmHg 57%
    21:00 +21°C° 0 mm 2 mps 654 mmHg 66%
    22:00 +21°C° 0 mm 2 mps 654 mmHg 67%
    23:00 +20°C° 0 mm 2 mps 654 mmHg 69%
    Show more